Terug naar catalogus

STARLINK-6155

ActiefCommunicatieVLEO
NORAD 57076·PAYLOAD·🇺🇸 United States

Gelanceerd Jun 22, 2023 vanaf Vandenberg Space Force Base

Loading…

Volgende Passages (komende 24 uur)

TLE

VersSource: CelesTrak SupGP

Epoch: Sep 15, 2026, 01:10 UTC

1 57076C 23088AE  26258.04909722  .00061210  00000+0  22169-2 0  2581
2 57076  43.0007 106.9603 0001095 264.4699 243.9339 15.27550810    19

Volg STARLINK-6155 in realtime met AllMySat

Download on the App Store